Weather History for Edinburgh Airport, United Kingdom

Change the Weather History Date:

Thursday, July 19, 2012

  Actual Average Record
Temperature  
Mean Temperature 54 °F -  
Max Temperature 60 °F 65 °F 75 °F (1997)
Min Temperature 48 °F 50 °F 44 °F (2001)
Degree Days  
Heating Degree Days 11    
Growing Degree Days 4 (Base 50)    
Moisture  
Dew Point 47 °F    
Average Humidity 75    
Maximum Humidity 100    
Minimum Humidity 52    
Precipitation  
Precipitation 0.00 in 0.08 in - ()
Sea Level Pressure  
Sea Level Pressure 29.83 in    
Wind  
Wind Speed 4 mph ()    
Max Wind Speed 14 mph    
Max Gust Speed -    
Visibility 6.2 miles    
Events Rain    
Averages and records for this station are not official NWS values.
T = Trace of Precipitation, MM = Missing Value Source: Averaged Metar Reports

Daily Weather History Graph

Daily Weather History Graph

Search for Another Location

Airport:

Trip Planner

Search our weather history database for the weather conditions in past years. The results will help you decide how hot, cold, wet, or windy it might be!

Date:

Astronomy

Jul. 19, 2012 Rise Set
Actual Time 4:55 AM BST 9:43 PM BST
Civil Twilight 4:01 AM BST 10:36 PM BST
Nautical Twilight 2:25 AM BST 12:09 AM BST
Astronomical Twilight Sun does not rise Sun does not rise
Moon 5:31 AM BST (7/19) 9:17 PM BST (7/19)
Length of Visible Light 18h 35m
Length of Day
16h 47m
New Moon, 0% of the Moon is Illuminated
Jul 19
New Moon
Jul 26
First Quarter
Aug 2
Full
Aug 9
Last Quarter
Aug 17
New

Hourly Weather History & Observations

Time (BST) Temp. Dew Point Humidity Pressure Visibility Wind Dir Wind Speed Gust Speed Precip Events Conditions
12:20 AM 51.8 °F 50.0 °F 94% 29.71 in 6.2 mi NE 4.6 mph - N/A Rain Light Rain
12:50 AM 51.8 °F 50.0 °F 94% 29.71 in 6.2 mi Variable 2.3 mph - N/A Rain Light Rain
1:20 AM 51.8 °F 50.0 °F 94% 29.71 in 6.2 mi NE 2.3 mph - N/A Rain Light Rain
1:50 AM 51.8 °F 50.0 °F 94% 29.71 in 6.2 mi NNE 3.5 mph - N/A Rain Light Rain
2:20 AM 51.8 °F 48.2 °F 88% 29.74 in 6.2 mi NNE 5.8 mph - N/A   Scattered Clouds
2:50 AM 51.8 °F 48.2 °F 88% 29.74 in 6.2 mi NNE 4.6 mph - N/A   Mostly Cloudy
3:20 AM 51.8 °F 48.2 °F 88% 29.74 in 6.2 mi NE 2.3 mph - N/A   Mostly Cloudy
3:50 AM 50.0 °F 48.2 °F 94% 29.74 in 6.2 mi NE 2.3 mph - N/A   Mostly Cloudy
4:20 AM 48.2 °F 48.2 °F 100% 29.74 in 6.2 mi Calm Calm - N/A   Partly Cloudy
4:50 AM 50.0 °F 48.2 °F 94% 29.74 in 6.2 mi Calm Calm - N/A   Partly Cloudy
5:50 AM 50.0 °F 50.0 °F 100% 29.77 in 6.2 mi West 2.3 mph - N/A   Mostly Cloudy
6:20 AM 50.0 °F 50.0 °F 100% 29.77 in 6.2 mi Calm Calm - N/A   Mostly Cloudy
6:50 AM 51.8 °F 48.2 °F 88% 29.77 in 6.2 mi Variable 3.5 mph - N/A   Partly Cloudy
7:20 AM 53.6 °F 48.2 °F 82% 29.80 in 6.2 mi NNW 4.6 mph - N/A   Partly Cloudy
7:50 AM 53.6 °F 46.4 °F 77% 29.80 in 6.2 mi NNW 4.6 mph - N/A   Partly Cloudy
8:20 AM 55.4 °F 44.6 °F 67% 29.80 in 6.2 mi NNW 5.8 mph - N/A   Scattered Clouds
8:50 AM 53.6 °F 44.6 °F 72% 29.80 in 6.2 mi NNW 4.6 mph - N/A   Scattered Clouds
9:20 AM 55.4 °F 44.6 °F 67% 29.80 in 6.2 mi WNW 6.9 mph - N/A   Scattered Clouds
9:50 AM 57.2 °F 46.4 °F 67% 29.83 in 6.2 mi NW 5.8 mph - N/A   Scattered Clouds
10:20 AM 55.4 °F 44.6 °F 67% 29.83 in 6.2 mi NNW 4.6 mph - N/A   Scattered Clouds
10:50 AM 57.2 °F 44.6 °F 63% 29.83 in 6.2 mi NNW 5.8 mph - N/A   Scattered Clouds
11:20 AM 59.0 °F 44.6 °F 59% 29.83 in 6.2 mi North 4.6 mph - N/A   Scattered Clouds
11:50 AM 59.0 °F 44.6 °F 59% 29.83 in 6.2 mi North 6.9 mph - N/A   Scattered Clouds
12:20 PM 57.2 °F 42.8 °F 59% 29.83 in 6.2 mi NW 5.8 mph - N/A   Scattered Clouds
12:50 PM 60.8 °F 42.8 °F 52% 29.83 in 6.2 mi North 6.9 mph - N/A   Partly Cloudy
1:20 PM 60.8 °F 44.6 °F 55% 29.86 in 6.2 mi Variable 3.5 mph - N/A   Partly Cloudy
1:50 PM 59.0 °F 42.8 °F 55% 29.86 in 6.2 mi Variable 3.5 mph - N/A   Partly Cloudy
2:20 PM 60.8 °F 42.8 °F 52% 29.86 in 6.2 mi Variable 2.3 mph - N/A   Partly Cloudy
2:50 PM 60.8 °F 44.6 °F 55% 29.86 in 6.2 mi Variable 3.5 mph - N/A   Partly Cloudy
3:20 PM 60.8 °F 46.4 °F 59% 29.86 in 6.2 mi ENE 8.1 mph - N/A   Partly Cloudy
3:50 PM 59.0 °F 48.2 °F 67% 29.89 in 6.2 mi ENE 10.4 mph - N/A   Partly Cloudy
4:20 PM 59.0 °F 48.2 °F 67% 29.89 in 6.2 mi ENE 10.4 mph - N/A Rain Light Rain Showers
4:50 PM 57.2 °F 48.2 °F 72% 29.89 in 6.2 mi ENE 6.9 mph - N/A   Partly Cloudy
5:20 PM 59.0 °F 48.2 °F 67% 29.89 in 6.2 mi East 9.2 mph - N/A   Partly Cloudy
5:50 PM 60.8 °F 46.4 °F 59% 29.89 in 6.2 mi East 6.9 mph - N/A   Partly Cloudy
6:20 PM 59.0 °F 46.4 °F 63% 29.89 in 6.2 mi East 4.6 mph - N/A   Partly Cloudy
6:50 PM 57.2 °F 48.2 °F 72% 29.89 in 6.2 mi NE 12.7 mph - N/A   Partly Cloudy
7:20 PM 55.4 °F 46.4 °F 72% 29.89 in 6.2 mi NE 13.8 mph - N/A   Partly Cloudy
7:50 PM 55.4 °F 48.2 °F 77% 29.92 in 6.2 mi ENE 8.1 mph - N/A   Partly Cloudy
8:20 PM 55.4 °F 48.2 °F 77% 29.92 in 6.2 mi East 6.9 mph - N/A   Partly Cloudy
8:50 PM 55.4 °F 48.2 °F 77% 29.92 in 6.2 mi ENE 6.9 mph - N/A   Partly Cloudy
9:20 PM 53.6 °F 48.2 °F 82% 29.92 in 6.2 mi ENE 4.6 mph - N/A   Partly Cloudy
9:50 PM 53.6 °F 46.4 °F 77% 29.92 in 6.2 mi East 5.8 mph - N/A   Partly Cloudy
10:20 PM 53.6 °F 46.4 °F 77% 29.92 in 6.2 mi ENE 4.6 mph - N/A   Partly Cloudy
10:50 PM 53.6 °F 46.4 °F 77% 29.95 in 6.2 mi East 5.8 mph - N/A   Partly Cloudy
11:20 PM 51.8 °F 46.4 °F 82% 29.95 in - ENE 4.6 mph - N/A   Clear
11:50 PM 51.8 °F 46.4 °F 82% 29.95 in 6.2 mi NE 3.5 mph - N/A   Partly Cloudy